| time (UTC) | temp F | wind direction | speed MPH | gust MPH | rain 1hr in | rain 24hr in | rain mn in | humidity % | barometer mb |
| 20260509071523 | 54 | 42 | 0.0 | 0.0 | 0.01 | 0.02 | 0.02 | 91 | 1011.0 |
| 20260509070022 | 54 | 42 | 0.0 | 0.0 | 0.01 | 0.02 | 0.02 | 91 | 1011.2 |
| 20260509064521 | 54 | 42 | 0.0 | 0.0 | 0.01 | 0.02 | 0.02 | 90 | 1011.3 |
| 20260509063021 | 54 | 42 | 0.0 | 0.0 | 0.01 | 0.01 | 0.01 | 90 | 1011.3 |
| 20260509061522 | 54 | 42 | 0.0 | 0.0 | 0.01 | 0.01 | 0.01 | 89 | 1011.1 |
| 20260509060019 | 54 | 42 | 0.0 | 0.0 | 0.01 | 0.01 | 0.01 | 89 | 1011.0 |
| 20260509054516 | 54 | 42 | 0.0 | 0.0 | 0.01 | 0.01 | 0.01 | 89 | 1011.1 |
| 20260509053014 | 55 | 42 | 0.0 | 0.0 | 0.00 | 0.00 | 0.00 | 87 | 1011.3 |
| 20260509051513 | 55 | 42 | 0.0 | 0.0 | 0.00 | 0.00 | 0.00 | 86 | 1011.5 |
| 20260509050011 | 55 | 42 | 0.0 | 0.0 | 0.00 | 0.00 | 0.00 | 84 | 1011.5 |
| 20260509044508 | 56 | 42 | 0.0 | 0.0 | 0.00 | 0.00 | 0.00 | 83 | 1011.6 |
| 20260509043006 | 56 | 42 | 0.0 | 0.0 | 0.00 | 0.00 | 0.00 | 83 | 1011.5 |
| 20260509041503 | 57 | 42 | 0.0 | 0.0 | 0.00 | 0.00 | 0.00 | 81 | 1011.7 |
| 20260509040000 | 57 | 42 | 0.0 | 0.0 | 0.00 | 0.00 | 0.00 | 79 | 1011.8 |
| 20260509034607 | 57 | 60 | 0.0 | 1.0 | 0.00 | 0.00 | 0.00 | 78 | 1011.9 |
| 20260509033101 | 57 | 47 | 0.0 | 1.0 | 0.00 | 0.00 | 0.00 | 77 | 1011.9 |
| 20260509031607 | 58 | 275 | 0.0 | 3.0 | 0.00 | 0.00 | 0.00 | 76 | 1011.9 |
| 20260509030059 | 58 | 61 | 0.0 | 3.0 | 0.00 | 0.00 | 0.00 | 75 | 1011.9 |
| 20260509024600 | 59 | 145 | 0.0 | 1.0 | 0.00 | 0.00 | 0.00 | 76 | 1011.8 |
| 20260509023058 | 59 | 76 | 0.0 | 2.0 | 0.00 | 0.00 | 0.00 | 71 | 1011.5 |
| 20260509021557 | 59 | 67 | 0.0 | 0.0 | 0.00 | 0.00 | 0.00 | 69 | 1011.5 |
| 20260509020057 | 60 | 355 | 0.0 | 0.0 | 0.00 | 0.00 | 0.00 | 69 | 1011.6 |
| 20260509014601 | 60 | 259 | 0.0 | 0.0 | 0.00 | 0.00 | 0.00 | 65 | 1011.6 |
| 20260509013100 | 60 | 259 | 0.0 | 2.0 | 0.00 | 0.00 | 0.00 | 64 | 1011.5 |
| 20260509011555 | 60 | 76 | 0.0 | 0.0 | 0.00 | 0.00 | 0.00 | 73 | 1011.5 |
| 20260509010057 | 60 | 76 | 0.0 | 0.0 | 0.00 | 0.00 | 0.00 | 64 | 1011.2 |
| 20260509004558 | 61 | 76 | 0.0 | 0.0 | 0.00 | 0.00 | 0.00 | 62 | 1010.9 |
| 20260509003054 | 61 | 76 | 0.0 | 0.0 | 0.00 | 0.00 | 0.00 | 63 | 1010.9 |
| 20260509001653 | 62 | 78 | 0.0 | 0.0 | 0.00 | 0.00 | 0.00 | 62 | 1011.0 |
| 20260509000052 | 63 | 78 | 0.0 | 0.0 | 0.00 | 0.00 | 0.00 | 63 | 1011.0 |
| 20260508234552 | 64 | 255 | 0.0 | 0.0 | 0.00 | 0.00 | 0.00 | 60 | 1011.1 |
| 20260508233059 | 65 | 255 | 0.0 | 2.0 | 0.00 | 0.00 | 0.00 | 54 | 1011.2 |
| 20260508231550 | 65 | 248 | 0.0 | 2.0 | 0.00 | 0.00 | 0.00 | 50 | 1011.0 |
| 20260508230058 | 66 | 257 | 0.0 | 2.0 | 0.00 | 0.00 | 0.00 | 49 | 1010.9 |
| 20260508224549 | 66 | 259 | 0.0 | 0.0 | 0.00 | 0.00 | 0.00 | 47 | 1010.7 |
| 20260508223049 | 66 | 252 | 0.0 | 1.0 | 0.00 | 0.00 | 0.00 | 45 | 1010.7 |
| 20260508221550 | 67 | 252 | 0.0 | 2.0 | 0.00 | 0.00 | 0.00 | 45 | 1010.7 |
| 20260508220047 | 67 | 259 | 0.0 | 2.0 | 0.00 | 0.00 | 0.00 | 45 | 1010.8 |
| 20260508214547 | 67 | 254 | 1.0 | 4.0 | 0.00 | 0.00 | 0.00 | 45 | 1010.8 |
| 20260508213046 | 67 | 258 | 1.0 | 2.0 | 0.00 | 0.00 | 0.00 | 45 | 1010.9 |
| 20260508211544 | 66 | 256 | 0.0 | 3.0 | 0.00 | 0.00 | 0.00 | 45 | 1011.0 |
| 20260508210042 | 67 | 250 | 0.0 | 3.0 | 0.00 | 0.00 | 0.00 | 45 | 1011.4 |
| 20260508204541 | 67 | 249 | 0.0 | 3.0 | 0.00 | 0.00 | 0.00 | 44 | 1011.8 |
| 20260508203039 | 67 | 256 | 0.0 | 2.0 | 0.00 | 0.00 | 0.00 | 42 | 1011.7 |
| 20260508201538 | 67 | 263 | 1.0 | 4.0 | 0.00 | 0.00 | 0.00 | 42 | 1011.9 |
| 20260508200047 | 67 | 260 | 0.0 | 4.0 | 0.00 | 0.00 | 0.00 | 42 | 1012.0 |
| 20260508194535 | 68 | 260 | 1.0 | 3.0 | 0.00 | 0.00 | 0.00 | 40 | 1012.2 |
| 20260508193035 | 69 | 274 | 1.0 | 5.0 | 0.00 | 0.00 | 0.00 | 40 | 1012.1 |
| 20260508191533 | 69 | 235 | 0.0 | 3.0 | 0.00 | 0.00 | 0.00 | 45 | 1012.3 |
| 20260508190036 | 69 | 250 | 1.0 | 5.0 | 0.00 | 0.00 | 0.00 | 41 | 1012.6 |
| 20260508184533 | 69 | 264 | 1.0 | 3.0 | 0.00 | 0.00 | 0.00 | 43 | 1012.9 |
| 20260508183027 | 69 | 254 | 2.0 | 5.0 | 0.00 | 0.00 | 0.00 | 40 | 1013.2 |
| 20260508181521 | 68 | 252 | 2.0 | 6.0 | 0.00 | 0.00 | 0.00 | 44 | 1013.3 |
| 20260508180019 | 67 | 273 | 1.0 | 4.0 | 0.00 | 0.00 | 0.00 | 45 | 1013.6 |
| 20260508174524 | 66 | 240 | 0.0 | 3.0 | 0.00 | 0.00 | 0.00 | 44 | 1014.0 |
| 20260508173016 | 67 | 260 | 0.0 | 4.0 | 0.00 | 0.00 | 0.00 | 45 | 1014.2 |
| 20260508171513 | 67 | 253 | 2.0 | 7.0 | 0.00 | 0.00 | 0.00 | 42 | 1014.5 |
| 20260508170010 | 68 | 247 | 1.0 | 5.0 | 0.00 | 0.00 | 0.00 | 43 | 1014.7 |
| 20260508164511 | 67 | 256 | 0.0 | 4.0 | 0.00 | 0.00 | 0.00 | 47 | 1015.0 |
| 20260508163004 | 66 | 256 | 1.0 | 4.0 | 0.00 | 0.00 | 0.00 | 47 | 1015.2 |
| 20260508161602 | 66 | 260 | 2.0 | 5.0 | 0.00 | 0.00 | 0.00 | 47 | 1015.4 |
| 20260508160059 | 65 | 248 | 0.0 | 3.0 | 0.00 | 0.00 | 0.00 | 47 | 1015.6 |
| 20260508154557 | 65 | 254 | 0.0 | 4.0 | 0.00 | 0.00 | 0.00 | 51 | 1015.7 |
| 20260508153050 | 64 | 257 | 1.0 | 3.0 | 0.00 | 0.00 | 0.00 | 49 | 1015.9 |
| 20260508151546 | 63 | 269 | 1.0 | 3.0 | 0.00 | 0.00 | 0.00 | 52 | 1016.0 |
| 20260508150043 | 62 | 255 | 1.0 | 3.0 | 0.00 | 0.00 | 0.00 | 53 | 1016.2 |
| 20260508144538 | 61 | 259 | 0.0 | 2.0 | 0.00 | 0.00 | 0.00 | 52 | 1016.2 |
| 20260508143032 | 59 | 261 | 1.0 | 3.0 | 0.00 | 0.00 | 0.00 | 55 | 1016.4 |
| 20260508141528 | 58 | 257 | 0.0 | 2.0 | 0.00 | 0.00 | 0.00 | 62 | 1016.7 |
| 20260508140023 | 55 | 263 | 1.0 | 5.0 | 0.00 | 0.00 | 0.00 | 65 | 1016.7 |
| 20260508134519 | 53 | 252 | 0.0 | 0.0 | 0.00 | 0.00 | 0.00 | 70 | 1016.8 |
| 20260508133021 | 50 | 237 | 0.0 | 0.0 | 0.00 | 0.00 | 0.00 | 76 | 1016.9 |
| 20260508131510 | 48 | 238 | 0.0 | 0.0 | 0.00 | 0.00 | 0.00 | 78 | 1016.9 |
| 20260508130005 | 47 | 223 | 0.0 | 0.0 | 0.00 | 0.00 | 0.00 | 80 | 1016.9 |
| 20260508124502 | 46 | 198 | 0.0 | 1.0 | 0.00 | 0.00 | 0.00 | 81 | 1016.8 |
| 20260508123109 | 45 | 213 | 0.0 | 0.0 | 0.00 | 0.00 | 0.00 | 86 | 1016.8 |
| 20260508121603 | 44 | 213 | 0.0 | 0.0 | 0.00 | 0.00 | 0.00 | 90 | 1016.8 |
| 20260508120057 | 43 | 140 | 0.0 | 0.0 | 0.00 | 0.00 | 0.00 | 94 | 1016.8 |
| 20260508114550 | 43 | 140 | 0.0 | 0.0 | 0.00 | 0.00 | 0.00 | 94 | 1016.7 |
| 20260508113051 | 42 | 107 | 0.0 | 0.0 | 0.00 | 0.00 | 0.00 | 94 | 1016.5 |
| 20260508111548 | 41 | 107 | 0.0 | 0.0 | 0.00 | 0.00 | 0.00 | 94 | 1016.5 |
| 20260508110049 | 41 | 137 | 0.0 | 1.0 | 0.00 | 0.00 | 0.00 | 94 | 1016.3 |
| 20260508104615 | 41 | 138 | 0.0 | 0.0 | 0.00 | 0.00 | 0.00 | 93 | 1016.4 |
| 20260508103047 | 40 | 80 | 0.0 | 0.0 | 0.00 | 0.00 | 0.00 | 93 | 1016.4 |
| 20260508101549 | 40 | 108 | 0.0 | 0.0 | 0.00 | 0.00 | 0.00 | 93 | 1016.3 |
| 20260508100042 | 39 | 108 | 0.0 | 0.0 | 0.00 | 0.00 | 0.00 | 93 | 1016.3 |
| 20260508094546 | 39 | 108 | 0.0 | 0.0 | 0.00 | 0.00 | 0.00 | 92 | 1016.4 |
| 20260508093041 | 39 | 108 | 0.0 | 0.0 | 0.00 | 0.00 | 0.00 | 92 | 1016.3 |
| 20260508091539 | 39 | 108 | 0.0 | 0.0 | 0.00 | 0.00 | 0.00 | 92 | 1016.4 |
| 20260508090045 | 39 | 108 | 0.0 | 0.0 | 0.00 | 0.00 | 0.00 | 92 | 1016.3 |
| 20260508084538 | 39 | 108 | 0.0 | 0.0 | 0.00 | 0.00 | 0.00 | 91 | 1016.1 |
| 20260508083051 | 39 | 108 | 0.0 | 0.0 | 0.00 | 0.00 | 0.00 | 90 | 1016.1 |
| 20260508081549 | 39 | 108 | 0.0 | 0.0 | 0.00 | 0.00 | 0.00 | 90 | 1016.0 |
| 20260508080034 | 39 | 108 | 0.0 | 0.0 | 0.00 | 0.00 | 0.00 | 91 | 1016.2 |
| 20260508074534 | 39 | 108 | 0.0 | 0.0 | 0.00 | 0.00 | 0.00 | 91 | 1016.1 |
| 20260508073035 | 40 | 108 | 0.0 | 0.0 | 0.00 | 0.00 | 0.00 | 90 | 1016.1 |